Dewpoint
60 60 60 60 59 58 57 57 56 56 55 53 54 53 51 52 54 56 57 56 58 59 60 61 59 61 62 62 62 62 63 63 63 62 63 63 63 63 63 63 63 63 63
60 60 59 57 56 54 54 54 54 54 55 54 52 50 49 48 47 47 49 50 52 56 58 59 61 61 61 62 62 62 61 62 63 62 62 62 62 62 62 62 62 63 63
55 56 56 54 53 51 51 51 51 51 50 51 52 51 52 51 49 47 47 47 48 54 57 56 57 58 59 60 61 61 61 61 61 63 62 62 62 62 62 62 62 61 62
52 52 52 51 50 49 49 49 49 49 49 48 48 46 46 47 46 45 46 48 48 52 54 56 56 56 56 57 59 60 61 61 62 61 62 62 61 60 60 60 60 61 61
48 49 49 49 49 48 47 47 47 47 47 47 45 46 46 46 47 48 50 50 51 53 53 56 57 58 58 57 57 57 59 60 60 61 60 60 59 57 55 55 55 57 58
46 47 48 47 47 47 46 46 45 45 45 45 44 45 47 48 50 51 50 49 49 50 51 54 56 57 58 58 58 58 58 59 59 57 56 57 57 56 55 55 54 55 57
46 46 46 46 45 45 45 44 46 45 44 44 43 45 47 47 49 49 47 46 46 47 49 52 53 53 52 54 54 55 56 57 57 57 57 57 56 55 55 58 57 58 58
45 45 45 45 45 44 44 44 45 44 44 43 42 44 42 45 46 45 43 43 43 44 45 46 48 50 49 51 54 54 53 53 54 56 56 56 57 57 57 57 57 57 57
45 45 45 44 44 44 44 43 43 43 42 42 44 43 41 39 44 45 42 41 40 40 41 42 46 50 49 51 52 52 53 53 52 54 55 55 56 56 57 57 57 56 54
44 44 44 44 44 44 43 43 43 43 43 42 42 43 43 43 43 42 42 40 40 39 39 41 42 49 49 50 51 52 51 51 53 54 54 53 52 52 55 55 55 53 52
43 43 44 44 43 44 43 43 43 43 43 42 42 42 42 41 42 42 42 40 39 39 43 44 41 49 48 49 50 51 51 49 49 51 53 51 50 49 49 50 51 51 50
43 43 43 43 43 43 43 43 43 42 42 43 42 42 41 40 39 40 41 40 39 39 45 47 47 49 49 49 48 49 50 50 49 47 49 48 47 47 47 47 48 49 48
42 43 42 42 42 42 42 42 42 42 42 42 42 41 42 42 41 39 38 37 36 38 43 45 47 47 47 48 47 47 50 50 49 47 45 48 47 47 46 47 47 47 47
42 43 42 42 42 42 42 42 42 41 42 42 41 41 41 41 41 40 38 37 35 37 38 42 44 47 48 47 46 46 48 50 49 48 47 47 48 48 47 47 46 45 45
43 43 43 42 42 42 41 41 41 41 42 42 41 41 40 41 41 41 40 38 36 35 36 42 41 47 47 46 45 46 46 48 49 49 49 49 48 47 46 45 45 45 44
43 43 43 42 41 41 41 41 41 41 41 42 41 41 41 42 42 42 41 41 39 37 36 40 41 45 45 44 45 44 45 46 47 48 49 47 48 46 45 45 45 43 42
43 43 43 42 41 41 40 40 40 40 40 41 42 41 41 42 42 43 43 42 41 40 38 40 43 45 44 43 43 43 43 43 45 48 47 47 46 45 44 43 42 42 42
43 43 42 41 41 40 40 39 39 40 40 40 41 42 41 41 41 42 42 42 42 43 42 40 42 42 42 43 42 41 40 40 42 46 47 46 44 43 43 41 41 40 38
42 42 41 41 40 40 39 39 40 40 41 41 42 42 41 42 41 42 42 42 42 42 42 41 41 42 41 40 39 38 38 39 39 42 44 44 43 42 40 41 40 38 37
41 41 41 40 40 39 39 39 41 41 42 42 42 42 42 42 41 41 41 41 40 40 40 40 41 40 39 39 39 37 36 36 36 38 39 40 40 39 38 39 37 35 34
40 40 40 40 40 40 40 41 41 41 41 41 42 42 42 42 42 42 41 40 39 38 38 39 39 38 37 36 37 37 35 34 32 33 35 33 35 35 36 36 35 34 33
40 40 40 40 40 41 42 42 42 41 41 40 40 41 41 41 42 42 41 39 38 37 36 37 38 36 36 36 36 36 34 32 31 29 34 32 32 32 32 35 35 33 31
40 40 40 40 40 40 41 41 41 40 39 38 38 39 39 40 41 39 38 36 35 36 37 37 36 36 35 36 35 34 34 33 29 26 31 29 28 30 29 32 33 32 29
40 39 40 40 40 40 41 39 40 38 37 37 38 38 39 39 38 35 31 30 30 31 32 33 34 32 32 31 33 32 31 24 23 21 25 27 26 25 24 29 31 28 28
40 40 40 40 39 39 40 39 40 38 36 36 38 38 39 39 38 34 31 31 31 31 33 33 33 32 32 29 26 26 24 24 24 21 19 22 24 23 24 25 25 28 28
40 41 40 40 40 39 40 40 38 36 35 35 36 36 38 39 39 34 31 30 29 27 24 21 20 20 22 25 26 27 26 26 23 20 20 19 19 19 22 25 21 21 21
Wind_Speed
1 2 1 1 1 2 3 4 4 4 4 3 2 1 2 3 2 2 1 3 4 5 5 4 2 4 5 5 6 6 6 6 7 9 9 8 6 5 4 4 5 5 5
1 1 2 3 3 4 4 4 3 2 2 1 1 3 3 3 4 3 3 4 6 6 6 1 3 3 4 4 6 8 7 6 3 3 5 6 6 4 2 2 1 2 2
2 2 2 2 3 4 4 4 3 2 2 2 2 3 4 4 4 5 5 6 5 5 6 6 3 3 4 6 3 3 4 5 5 6 8 7 7 7 7 5 4 1 2
3 2 1 1 2 2 2 3 3 2 2 2 3 3 4 4 4 3 4 4 4 4 3 5 6 4 3 2 1 2 4 8 9 5 3 8 9 6 4 3 5 4 5
3 2 1 1 2 2 2 2 1 1 2 2 2 3 3 3 3 3 3 4 4 3 2 4 6 6 5 4 4 2 4 6 9 9 10 8 8 5 3 1 2 3 2
3 2 1 0 1 1 2 1 2 2 2 2 2 1 2 2 2 2 3 3 4 4 3 3 4 8 11 11 9 6 2 5 9 9 7 7 7 6 4 5 4 6 4
2 2 2 1 1 2 3 2 1 1 1 1 1 1 1 2 3 3 4 4 5 5 5 4 4 4 5 10 10 8 6 5 4 7 8 6 5 4 4 3 5 10 13
1 1 0 1 1 1 1 0 1 1 1 1 1 1 2 2 2 3 3 3 5 4 5 5 4 4 3 4 10 9 6 4 5 6 6 6 6 6 5 7 9 11 13
2 1 1 1 1 1 2 2 2 3 3 2 4 2 2 4 2 2 2 3 4 4 4 4 4 4 4 5 6 8 10 7 4 5 6 8 9 10 11 14 16 15 16
2 1 1 2 2 2 3 3 2 3 3 5 2 5 3 1 3 3 3 3 3 3 4 3 3 3 3 4 8 12 12 9 12 10 12 14 15 15 18 18 18 17 15
3 3 3 3 3 3 2 3 3 3 4 4 5 2 4 4 3 4 3 4 3 3 3 2 2 2 3 3 5 9 12 11 11 12 11 13 13 11 12 13 14 13 13
4 6 5 5 4 4 4 4 4 4 4 5 5 6 6 3 5 5 3 2 4 3 3 3 2 4 3 4 6 10 10 9 9 8 9 10 11 8 11 11 10 12 12
6 9 8 7 5 5 5 4 4 5 5 5 6 6 5 6 3 3 3 3 2 2 2 4 3 2 4 4 5 7 10 8 6 4 4 8 10 9 10 11 10 10 11
9 7 8 7 6 5 5 4 4 5 5 5 5 5 4 4 4 3 3 5 3 2 2 3 3 2 4 5 6 7 8 10 6 3 8 9 9 11 12 12 11 11 11
7 8 8 8 7 6 6 5 5 6 4 4 5 5 4 3 3 3 2 3 4 5 5 6 4 1 3 5 6 7 8 13 9 10 12 12 11 14 14 11 10 11 12
8 8 8 8 7 7 7 6 6 6 6 5 5 6 5 4 4 5 3 2 1 3 4 2 2 4 5 6 7 8 8 8 11 5 10 10 14 14 13 12 12 12 11
8 9 8 8 8 7 6 7 7 6 7 7 7 8 7 6 6 6 6 4 3 3 2 2 2 5 3 6 6 7 7 7 9 8 7 12 15 12 13 11 11 11 15
8 8 8 8 7 7 7 7 7 7 8 8 8 7 8 6 8 7 5 5 4 3 3 8 4 3 3 4 5 6 5 6 9 13 12 14 14 13 13 11 11 14 13
8 8 8 8 8 8 7 8 8 8 8 9 10 11 11 10 8 5 6 6 5 5 5 4 5 2 2 4 4 5 5 6 8 10 15 14 13 13 12 13 14 15 14
7 8 8 8 8 7 7 7 7 8 8 8 9 10 9 10 9 8 7 8 7 6 6 5 5 3 3 2 3 3 3 4 4 6 11 11 12 12 11 12 12 13 12
7 8 9 7 7 6 5 6 6 6 7 6 5 7 7 6 8 9 8 8 7 7 6 6 5 3 4 4 4 3 3 5 4 4 5 7 7 8 7 9 10 10 10
8 9 9 9 8 5 6 8 7 6 6 5 3 5 3 3 6 8 7 6 6 7 7 6 6 6 5 4 4 6 7 4 3 5 2 3 3 5 4 6 7 7 8
10 10 10 10 8 6 7 7 7 5 3 1 3 7 7 6 6 10 11 10 7 3 3 5 7 5 6 6 7 7 5 3 3 1 2 3 1 4 3 5 4 7 4
12 12 11 10 8 7 9 6 8 6 3 3 4 7 5 7 10 11 9 10 8 7 5 5 5 6 5 6 5 4 6 8 7 5 2 3 1 2 2 3 3 5 5
10 11 11 12 10 9 9 8 8 10 5 3 1 3 5 7 13 14 13 13 12 13 16 17 14 13 11 10 9 10 8 7 3 2 5 2 2 2 2 3 5 7 6
9 10 11 11 11 10 10 8 9 8 6 5 3 3 5 8 17 16 13 14 13 9 9 10 11 12 11 12 9 5 6 5 4 3 2 2 2 1 3 2 3 4 4
Wind_Direction
97 113 103 65 12 359 4 2 19 8 348 330 329 342 32 22 22 21 19 9 355 11 9 30 346 323 310 268 265 274 263 268 256 236 225 214 196 188 202 215 220 218 223
124 101 48 31 14 5 0 345 343 357 345 311 312 347 6 13 352 351 349 342 339 330 320 332 4 353 14 310 251 225 245 255 246 215 198 183 172 154 145 159 174 180 167
73 58 33 9 359 357 356 351 352 351 324 332 303 319 316 312 305 312 315 313 321 322 329 312 17 11 29 9 333 203 184 229 193 113 112 115 111 107 108 108 91 276 105
76 79 71 23 5 342 359 357 356 340 331 341 308 325 332 330 334 329 330 323 323 311 323 15 24 20 40 75 97 165 148 129 128 138 145 117 68 51 68 86 107 61 41
80 100 112 61 354 352 357 344 360 344 301 307 334 360 350 336 334 338 341 346 345 333 331 30 48 46 50 77 68 113 176 169 155 148 135 141 151 206 166 205 141 146 173
74 68 39 337 323 302 304 326 332 9 356 324 305 314 10 11 13 24 24 35 31 31 18 28 44 57 48 53 53 54 61 119 124 119 129 142 149 177 165 195 179 142 149
117 138 165 195 320 318 323 340 8 339 303 339 276 249 145 80 80 56 50 61 58 53 53 52 52 48 41 40 54 56 53 71 103 123 120 121 140 161 170 183 160 130 118
138 178 92 276 271 252 215 157 215 281 256 247 213 220 249 208 125 63 65 56 59 41 49 37 43 53 47 53 46 43 59 76 96 97 108 102 103 106 145 119 119 116 104
171 161 174 213 243 230 250 231 225 222 251 230 228 230 207 235 204 161 106 71 66 49 36 21 30 43 39 60 55 47 48 60 87 98 97 96 94 98 99 99 95 90 89
198 177 183 215 224 217 224 231 205 229 216 245 228 232 251 228 225 203 181 142 93 60 27 7 8 54 54 62 60 50 44 57 71 81 90 82 74 70 75 81 84 83 81
212 215 215 218 231 234 244 244 231 225 224 242 227 197 218 220 228 225 217 178 135 53 23 350 343 104 77 75 68 56 48 56 62 67 77 72 65 67 77 77 78 78 76
222 225 217 213 223 227 234 234 237 230 232 233 235 225 222 210 211 202 204 171 184 95 46 44 108 137 120 98 74 63 53 51 55 53 77 70 73 73 80 82 86 86 70
231 228 214 213 216 223 228 223 233 235 229 228 222 227 227 231 212 202 186 146 153 135 116 65 72 128 120 102 74 64 47 38 43 60 97 91 86 83 82 81 80 75 72
233 221 214 214 215 218 224 223 236 238 232 231 218 215 201 198 192 192 178 162 146 134 142 136 50 98 105 93 73 67 51 32 40 77 115 96 99 94 91 85 77 78 78
234 220 210 209 210 213 218 221 237 243 229 228 214 199 187 177 161 150 159 186 173 166 173 181 163 130 109 86 69 71 60 42 40 79 105 108 99 96 87 84 85 84 70
219 208 207 207 204 211 212 212 227 228 216 217 209 189 185 183 172 137 132 143 133 133 164 165 179 160 148 101 72 71 61 59 39 86 117 113 109 100 96 90 79 73 74
208 205 201 198 203 207 212 219 233 231 223 215 210 206 183 196 190 165 159 154 130 102 194 185 146 154 121 115 94 82 60 49 39 58 123 124 108 103 96 92 88 86 81
202 193 181 187 195 203 209 217 229 228 227 224 215 212 203 207 217 197 156 163 177 154 221 190 159 149 122 120 118 99 77 53 46 45 90 106 110 105 96 92 98 96 90
188 161 168 184 195 202 205 217 220 224 223 224 222 221 215 204 209 193 175 178 167 165 217 201 164 131 122 154 104 88 84 72 54 47 66 90 92 94 90 92 95 88 79
175 152 169 184 194 194 204 211 213 228 233 234 227 223 208 198 205 197 194 186 167 172 197 191 174 147 137 143 140 149 131 72 71 53 62 68 73 86 94 99 94 91 78
170 162 166 170 174 178 198 213 230 232 240 237 228 222 205 213 227 209 188 184 166 185 183 187 184 151 154 153 178 153 133 132 64 38 76 54 65 71 64 98 98 91 83
173 166 168 164 173 187 223 234 230 230 224 209 228 219 167 221 227 185 149 146 176 190 193 186 183 184 173 159 150 161 141 150 157 25 92 80 38 84 60 51 105 99 78
171 174 175 177 186 203 214 199 166 145 140 202 257 244 209 207 162 126 111 96 81 86 184 178 181 175 168 174 156 152 146 137 119 73 133 125 56 129 35 27 81 87 80
184 183 186 187 187 200 179 193 172 155 209 240 257 267 212 205 151 137 124 99 83 69 74 93 130 132 127 133 142 140 137 115 103 79 34 132 99 119 65 49 61 86 74
188 192 191 187 186 185 203 213 202 163 168 224 240 262 230 189 166 150 134 125 104 87 81 85 96 104 103 107 117 124 130 138 121 93 30 92 90 112 85 98 58 51 68
202 192 194 189 188 195 203 201 156 164 179 205 199 235 246 191 169 163 148 142 132 129 116 106 93 83 81 79 72 77 148 148 129 123 39 136 139 140 146 96 83 53 61